Volver al catálogo

INTELSAT 907

ActivoComunicacionesGEO
NORAD 27683·PAYLOAD· XX

Lanzado Feb 15, 2003 desde Guiana Space Centre

Loading…

TLE

ActualizadoSource: Space-Track

Época: Sep 14, 2026, 12:32 UTC

1 27683U 03007A   26257.52235535 -.00000054  00000-0  00000-0 0  9998
2 27683   5.9628  71.4946 0009990 116.8825  86.4501  0.99156658 86071

Sigue INTELSAT 907 en tiempo real con AllMySat

Download on the App Store